Time,TemperatureF,DewpointF,PressureIn,WindDirection,WindDirectionDegrees,WindSpeedMPH,WindSpeedGustMPH,Humidity,HourlyPrecipIn,Conditions,Clouds,dailyrainin,SoftwareType,DateUTC
2013-03-23 00:03:00,36.1,18.3,30.26,NW,315,5.3,6.2,48,0.00,,,0.00,WUHU216HW,2013-03-23 04:03:00,
2013-03-23 00:08:00,35.9,18.6,30.26,WNW,293,0.0,5.3,49,0.00,,,0.00,WUHU216HW,2013-03-23 04:08:00,
2013-03-23 00:13:00,35.9,18.6,30.27,NNW,338,7.8,7.8,49,0.00,,,0.00,WUHU216HW,2013-03-23 04:13:00,
2013-03-23 00:18:00,35.9,18.6,30.26,NW,315,1.5,7.8,49,0.00,,,0.00,WUHU216HW,2013-03-23 04:18:00,
2013-03-23 00:23:00,35.7,18.5,30.26,NNW,338,0.0,6.9,49,0.00,,,0.00,WUHU216HW,2013-03-23 04:23:00,
2013-03-23 00:28:00,35.7,19.0,30.26,NNW,338,5.3,6.9,50,0.00,,,0.00,WUHU216HW,2013-03-23 04:28:00,
2013-03-23 00:33:00,35.7,19.0,30.26,WNW,293,6.2,6.2,50,0.00,,,0.00,WUHU216HW,2013-03-23 04:33:00,
2013-03-23 00:38:00,35.7,19.0,30.26,NW,315,5.3,7.8,50,0.00,,,0.00,WUHU216HW,2013-03-23 04:38:00,
2013-03-23 00:43:00,35.7,19.4,30.26,NW,315,0.0,7.8,51,0.00,,,0.00,WUHU216HW,2013-03-23 04:43:00,
2013-03-23 00:48:00,35.7,19.4,30.26,NW,315,4.9,5.3,51,0.00,,,0.00,WUHU216HW,2013-03-23 04:48:00,
2013-03-23 00:53:00,35.7,19.4,30.26,NNW,338,0.0,4.9,51,0.00,,,0.00,WUHU216HW,2013-03-23 04:53:00,
2013-03-23 00:58:00,35.6,19.7,30.26,WNW,293,3.1,6.4,52,0.00,,,0.00,WUHU216HW,2013-03-23 04:58:00,
2013-03-23 01:03:00,35.4,19.5,30.26,NNW,338,7.6,7.6,52,0.00,,,0.00,WUHU216HW,2013-03-23 05:03:00,
2013-03-23 01:08:00,35.4,19.5,30.26,NW,315,7.3,7.6,52,0.00,,,0.00,WUHU216HW,2013-03-23 05:08:00,
2013-03-23 01:13:00,35.4,19.5,30.26,NW,315,5.5,7.8,52,0.00,,,0.00,WUHU216HW,2013-03-23 05:13:00,
2013-03-23 01:18:00,35.4,19.1,30.26,NW,315,0.0,7.8,51,0.00,,,0.00,WUHU216HW,2013-03-23 05:18:00,
2013-03-23 01:23:00,35.4,19.1,30.26,NW,315,0.0,5.3,51,0.00,,,0.00,WUHU216HW,2013-03-23 05:23:00,
2013-03-23 01:28:00,35.4,19.1,30.26,NNW,338,0.0,6.0,51,0.00,,,0.00,WUHU216HW,2013-03-23 05:28:00,
2013-03-23 01:33:00,35.4,19.1,30.26,NNW,338,0.0,6.0,51,0.00,,,0.00,WUHU216HW,2013-03-23 05:33:00,
2013-03-23 01:38:00,35.4,19.1,30.26,NW,315,0.0,0.0,51,0.00,,,0.00,WUHU216HW,2013-03-23 05:38:00,
2013-03-23 01:43:00,35.4,18.6,30.26,WNW,293,0.0,0.0,50,0.00,,,0.00,WUHU216HW,2013-03-23 05:43:00,
2013-03-23 01:48:00,35.7,19.0,30.26,NW,315,0.0,0.0,50,0.00,,,0.00,WUHU216HW,2013-03-23 05:48:00,
2013-03-23 01:53:00,35.7,19.0,30.26,WNW,293,0.0,0.0,50,0.00,,,0.00,WUHU216HW,2013-03-23 05:53:00,
2013-03-23 01:58:00,35.7,19.0,30.26,NW,315,0.0,7.1,50,0.00,,,0.00,WUHU216HW,2013-03-23 05:58:00,
2013-03-23 02:03:00,35.6,18.8,30.26,NW,315,0.0,7.1,50,0.00,,,0.00,WUHU216HW,2013-03-23 06:03:00,
2013-03-23 02:08:00,35.6,18.3,30.26,NW,315,0.0,3.8,49,0.00,,,0.00,WUHU216HW,2013-03-23 06:08:00,
2013-03-23 02:13:00,35.4,17.6,30.26,NW,315,2.0,5.8,48,0.00,,,0.00,WUHU216HW,2013-03-23 06:13:00,
2013-03-23 02:19:00,35.4,17.6,30.26,NW,315,5.5,6.0,48,0.00,,,0.00,WUHU216HW,2013-03-23 06:19:00,
2013-03-23 02:24:00,35.6,17.2,30.26,WNW,293,0.0,6.0,47,0.00,,,0.00,WUHU216HW,2013-03-23 06:24:00,
2013-03-23 02:29:00,35.7,16.9,30.26,NW,315,0.0,0.0,46,0.00,,,0.00,WUHU216HW,2013-03-23 06:29:00,
2013-03-23 02:34:00,35.7,16.9,30.26,NW,315,0.0,6.9,46,0.00,,,0.00,WUHU216HW,2013-03-23 06:34:00,
2013-03-23 02:39:00,35.7,16.4,30.26,West,270,0.0,6.9,45,0.00,,,0.00,WUHU216HW,2013-03-23 06:39:00,
2013-03-23 02:44:00,35.9,15.5,30.26,NW,315,6.7,6.7,43,0.00,,,0.00,WUHU216HW,2013-03-23 06:44:00,
2013-03-23 02:49:00,35.9,15.0,30.26,WNW,293,4.6,6.7,42,0.00,,,0.00,WUHU216HW,2013-03-23 06:49:00,
2013-03-23 02:54:00,35.9,15.0,30.26,NW,315,2.6,6.7,42,0.00,,,0.00,WUHU216HW,2013-03-23 06:54:00,
2013-03-23 02:59:00,35.9,14.4,30.26,NW,315,0.0,7.1,41,0.00,,,0.00,WUHU216HW,2013-03-23 06:59:00,
2013-03-23 03:04:00,36.1,14.6,30.26,NW,315,0.0,7.1,41,0.00,,,0.00,WUHU216HW,2013-03-23 07:04:00,
2013-03-23 03:09:00,35.9,14.4,30.26,NW,315,4.4,5.5,41,0.00,,,0.00,WUHU216HW,2013-03-23 07:09:00,
2013-03-23 03:14:00,36.1,14.1,30.26,WNW,293,0.0,4.4,40,0.00,,,0.00,WUHU216HW,2013-03-23 07:14:00,
2013-03-23 03:19:00,35.9,13.9,30.26,NW,315,0.2,3.3,40,0.00,,,0.00,WUHU216HW,2013-03-23 07:19:00,
2013-03-23 03:24:00,36.1,14.1,30.26,West,270,0.0,4.4,40,0.00,,,0.00,WUHU216HW,2013-03-23 07:24:00,
2013-03-23 03:29:00,35.7,13.8,30.25,WNW,293,5.5,7.3,40,0.00,,,0.00,WUHU216HW,2013-03-23 07:29:00,
2013-03-23 03:34:00,35.7,12.5,30.25,NW,315,6.4,7.3,38,0.00,,,0.00,WUHU216HW,2013-03-23 07:34:00,
2013-03-23 03:39:00,35.7,12.5,30.25,North,0,0.0,6.4,38,0.00,,,0.00,WUHU216HW,2013-03-23 07:39:00,
2013-03-23 03:44:00,35.4,12.8,30.25,WNW,293,3.1,3.1,39,0.00,,,0.00,WUHU216HW,2013-03-23 07:44:00,
2013-03-23 03:49:00,35.4,12.1,30.24,WNW,293,0.0,3.1,38,0.00,,,0.00,WUHU216HW,2013-03-23 07:49:00,
2013-03-23 03:54:00,35.2,12.6,30.24,NW,315,5.8,5.8,39,0.00,,,0.00,WUHU216HW,2013-03-23 07:54:00,
2013-03-23 03:59:00,35.2,12.0,30.24,NNW,338,6.0,6.9,38,0.00,,,0.00,WUHU216HW,2013-03-23 07:59:00,
2013-03-23 04:04:00,35.2,12.0,30.24,NW,315,8.0,8.0,38,0.00,,,0.00,WUHU216HW,2013-03-23 08:04:00,
2013-03-23 04:09:00,35.2,12.0,30.24,West,270,6.4,8.0,38,0.00,,,0.00,WUHU216HW,2013-03-23 08:09:00,
2013-03-23 04:14:00,34.8,11.6,30.24,NW,315,0.0,7.3,38,0.00,,,0.00,WUHU216HW,2013-03-23 08:14:00,
2013-03-23 04:19:00,34.8,12.3,30.24,WNW,293,3.5,4.6,39,0.00,,,0.00,WUHU216HW,2013-03-23 08:19:00,
2013-03-23 04:24:00,34.8,12.3,30.24,NNW,338,7.1,7.1,39,0.00,,,0.00,WUHU216HW,2013-03-23 08:24:00,
2013-03-23 04:29:00,34.8,12.3,30.24,NW,315,0.0,7.1,39,0.00,,,0.00,WUHU216HW,2013-03-23 08:29:00,
2013-03-23 04:34:00,34.8,12.3,30.24,NW,315,0.0,0.0,39,0.00,,,0.00,WUHU216HW,2013-03-23 08:34:00,
2013-03-23 04:39:00,34.7,12.1,30.24,NW,315,0.0,0.0,39,0.00,,,0.00,WUHU216HW,2013-03-23 08:39:00,
2013-03-23 04:44:00,34.7,12.1,30.24,NNW,338,0.0,0.0,39,0.00,,,0.00,WUHU216HW,2013-03-23 08:44:00,
2013-03-23 04:49:00,34.7,12.1,30.25,NW,315,6.9,6.9,39,0.00,,,0.00,WUHU216HW,2013-03-23 08:49:00,
2013-03-23 04:54:00,34.7,12.1,30.25,NNW,338,3.3,6.9,39,0.00,,,0.00,WUHU216HW,2013-03-23 08:54:00,
2013-03-23 04:59:00,34.5,12.0,30.25,NW,315,2.9,3.3,39,0.00,,,0.00,WUHU216HW,2013-03-23 08:59:00,
2013-03-23 05:04:00,34.5,12.0,30.25,NW,315,0.0,2.9,39,0.00,,,0.00,WUHU216HW,2013-03-23 09:04:00,
2013-03-23 05:09:00,34.5,12.0,30.25,NW,315,0.0,2.9,39,0.00,,,0.00,WUHU216HW,2013-03-23 09:09:00,
2013-03-23 05:14:00,34.5,12.0,30.25,NW,315,3.1,3.1,39,0.00,,,0.00,WUHU216HW,2013-03-23 09:14:00,
2013-03-23 05:19:00,34.3,11.8,30.25,NW,315,5.8,5.8,39,0.00,,,0.00,WUHU216HW,2013-03-23 09:19:00,
2013-03-23 05:24:00,34.3,11.8,30.25,WNW,293,0.0,7.6,39,0.00,,,0.00,WUHU216HW,2013-03-23 09:24:00,
2013-03-23 05:29:00,34.3,12.5,30.25,WSW,248,0.0,7.6,40,0.00,,,0.00,WUHU216HW,2013-03-23 09:29:00,
2013-03-23 05:34:00,34.3,11.8,30.25,NW,315,0.0,6.2,39,0.00,,,0.00,WUHU216HW,2013-03-23 09:34:00,
2013-03-23 05:39:00,34.3,11.8,30.26,West,270,0.0,0.0,39,0.00,,,0.00,WUHU216HW,2013-03-23 09:39:00,
2013-03-23 05:44:00,34.1,11.6,30.26,WNW,293,7.1,7.1,39,0.00,,,0.00,WUHU216HW,2013-03-23 09:44:00,
2013-03-23 05:49:00,34.1,12.3,30.26,WNW,293,0.0,7.1,40,0.00,,,0.00,WUHU216HW,2013-03-23 09:49:00,
2013-03-23 05:54:00,34.1,12.3,30.26,NW,315,0.0,7.1,40,0.00,,,0.00,WUHU216HW,2013-03-23 09:54:00,
2013-03-23 05:59:00,34.1,12.3,30.26,WNW,293,0.0,0.0,40,0.00,,,0.00,WUHU216HW,2013-03-23 09:59:00,
2013-03-23 06:04:00,33.9,12.1,30.26,WNW,293,0.0,0.0,40,0.00,,,0.00,WUHU216HW,2013-03-23 10:04:00,
2013-03-23 06:09:00,33.9,12.6,30.26,NNE,23,0.0,0.0,41,0.00,,,0.00,WUHU216HW,2013-03-23 10:09:00,
2013-03-23 06:14:00,33.8,13.0,30.26,NW,315,0.0,0.0,42,0.00,,,0.00,WUHU216HW,2013-03-23 10:14:00,
2013-03-23 06:19:00,33.8,13.0,30.26,NW,315,0.0,0.0,42,0.00,,,0.00,WUHU216HW,2013-03-23 10:19:00,
2013-03-23 06:24:00,33.8,12.5,30.26,North,0,0.0,0.0,41,0.00,,,0.00,WUHU216HW,2013-03-23 10:24:00,
2013-03-23 06:29:00,33.8,13.5,30.26,NE,45,4.6,4.6,43,0.00,,,0.00,WUHU216HW,2013-03-23 10:29:00,
2013-03-23 06:34:00,33.6,13.8,30.26,NNW,338,0.0,4.6,44,0.00,,,0.00,WUHU216HW,2013-03-23 10:34:00,
2013-03-23 06:40:00,33.6,13.8,30.26,NNW,338,0.0,0.0,44,0.00,,,0.00,WUHU216HW,2013-03-23 10:40:00,
2013-03-23 06:45:00,33.6,13.8,30.26,WNW,293,3.3,3.3,44,0.00,,,0.00,WUHU216HW,2013-03-23 10:45:00,
2013-03-23 06:50:00,33.6,13.8,30.27,WNW,293,6.7,6.7,44,0.00,,,0.00,WUHU216HW,2013-03-23 10:50:00,
2013-03-23 06:55:00,33.6,14.3,30.27,WNW,293,0.0,6.7,45,0.00,,,0.00,WUHU216HW,2013-03-23 10:55:00,
2013-03-23 07:00:00,33.6,14.8,30.27,NW,315,7.1,7.1,46,0.00,,,0.00,WUHU216HW,2013-03-23 11:00:00,
2013-03-23 07:05:00,33.6,14.8,30.27,WNW,293,0.0,7.1,46,0.00,,,0.00,WUHU216HW,2013-03-23 11:05:00,
2013-03-23 07:10:00,33.6,14.8,30.27,North,0,0.0,2.6,46,0.00,,,0.00,WUHU216HW,2013-03-23 11:10:00,
2013-03-23 07:15:00,33.6,15.3,30.27,NW,315,0.0,6.7,47,0.00,,,0.00,WUHU216HW,2013-03-23 11:15:00,
2013-03-23 07:20:00,33.6,15.3,30.26,NNW,338,7.6,8.5,47,0.00,,,0.00,WUHU216HW,2013-03-23 11:20:00,
2013-03-23 07:25:00,33.6,15.3,30.26,NW,315,0.0,8.5,47,0.00,,,0.00,WUHU216HW,2013-03-23 11:25:00,
2013-03-23 07:30:00,33.8,15.5,30.27,NW,315,5.1,7.6,47,0.00,,,0.00,WUHU216HW,2013-03-23 11:30:00,
2013-03-23 07:35:00,33.8,15.5,30.26,WNW,293,0.0,5.1,47,0.00,,,0.00,WUHU216HW,2013-03-23 11:35:00,
2013-03-23 07:40:00,33.9,15.7,30.26,NW,315,2.4,3.8,47,0.00,,,0.00,WUHU216HW,2013-03-23 11:40:00,
2013-03-23 07:45:00,33.9,15.2,30.27,NNW,338,4.9,4.9,46,0.00,,,0.00,WUHU216HW,2013-03-23 11:45:00,
2013-03-23 07:50:00,33.9,15.3,30.27,NNW,338,0.0,7.3,46,0.00,,,0.00,WUHU216HW,2013-03-23 11:50:00,
2013-03-23 07:55:00,34.3,16.0,30.27,NW,315,0.0,7.8,47,0.00,,,0.00,WUHU216HW,2013-03-23 11:55:00,
2013-03-23 08:00:00,34.1,15.3,30.27,WNW,293,6.9,7.8,46,0.00,,,0.00,WUHU216HW,2013-03-23 12:00:00,
2013-03-23 08:05:00,34.3,15.5,30.27,NW,315,0.0,7.1,46,0.00,,,0.00,WUHU216HW,2013-03-23 12:05:00,
2013-03-23 08:10:00,34.5,15.7,30.27,NW,315,7.8,7.8,46,0.00,,,0.00,WUHU216HW,2013-03-23 12:10:00,
2013-03-23 08:15:00,34.5,15.7,30.28,NW,315,3.1,7.8,46,0.00,,,0.00,WUHU216HW,2013-03-23 12:15:00,
2013-03-23 08:20:00,34.7,15.9,30.27,NW,315,0.0,5.1,46,0.00,,,0.00,WUHU216HW,2013-03-23 12:20:00,
2013-03-23 08:26:00,34.8,16.0,30.27,NW,315,3.3,6.0,46,0.00,,,0.00,WUHU216HW,2013-03-23 12:26:00,
2013-03-23 08:31:00,35.2,16.4,30.26,NW,315,0.0,6.0,46,0.00,,,0.00,WUHU216HW,2013-03-23 12:31:00,
2013-03-23 08:36:00,35.2,16.4,30.26,NNW,338,7.3,7.3,46,0.00,,,0.00,WUHU216HW,2013-03-23 12:36:00,
2013-03-23 08:41:00,35.4,16.0,30.26,NW,315,10.0,10.0,45,0.00,,,0.00,WUHU216HW,2013-03-23 12:41:00,
2013-03-23 08:46:00,36.3,16.8,30.26,NW,315,0.0,10.0,45,0.00,,,0.00,WUHU216HW,2013-03-23 12:46:00,
2013-03-23 08:51:00,37.7,17.6,30.26,NW,315,6.9,7.1,44,0.00,,,0.00,WUHU216HW,2013-03-23 12:51:00,
2013-03-23 08:56:00,38.8,17.6,30.26,NW,315,0.0,6.9,42,0.00,,,0.00,WUHU216HW,2013-03-23 12:56:00,
2013-03-23 09:01:00,40.2,18.3,30.26,NW,315,7.1,7.1,41,0.00,,,0.00,WUHU216HW,2013-03-23 13:01:00,
2013-03-23 09:06:00,41.1,17.9,30.26,WNW,293,5.1,7.1,39,0.00,,,0.00,WUHU216HW,2013-03-23 13:06:00,
2013-03-23 09:11:00,41.5,17.6,30.26,NW,315,3.5,7.1,38,0.00,,,0.00,WUHU216HW,2013-03-23 13:11:00,
2013-03-23 09:16:00,41.9,17.9,30.26,NNW,338,7.3,7.3,38,0.00,,,0.00,WUHU216HW,2013-03-23 13:16:00,
2013-03-23 09:21:00,42.0,17.4,30.26,WNW,293,8.2,8.2,37,0.00,,,0.00,WUHU216HW,2013-03-23 13:21:00,
2013-03-23 09:26:00,42.2,17.6,30.25,NNW,338,4.4,11.4,37,0.00,,,0.00,WUHU216HW,2013-03-23 13:26:00,
2013-03-23 09:31:00,42.6,17.2,30.25,WNW,293,0.0,11.4,36,0.00,,,0.00,WUHU216HW,2013-03-23 13:31:00,
2013-03-23 09:37:00,42.6,17.2,30.25,West,270,3.5,7.8,36,0.00,,,0.00,WUHU216HW,2013-03-23 13:37:00,
2013-03-23 09:42:00,42.9,17.6,30.25,NW,315,0.0,7.8,36,0.00,,,0.00,WUHU216HW,2013-03-23 13:42:00,
2013-03-23 09:47:00,43.3,17.9,30.25,West,270,0.0,7.8,36,0.00,,,0.00,WUHU216HW,2013-03-23 13:47:00,
2013-03-23 09:52:00,43.7,17.6,30.25,NW,315,5.5,8.2,35,0.00,,,0.00,WUHU216HW,2013-03-23 13:52:00,
2013-03-23 09:57:00,43.8,17.0,30.25,West,270,4.9,8.2,34,0.00,,,0.00,WUHU216HW,2013-03-23 13:57:00,
2013-03-23 10:02:00,43.7,17.6,30.25,WNW,293,0.0,5.8,35,0.00,,,0.00,WUHU216HW,2013-03-23 14:02:00,
2013-03-23 10:07:00,43.8,17.7,30.25,NW,315,6.7,7.6,35,0.00,,,0.00,WUHU216HW,2013-03-23 14:07:00,
2013-03-23 10:12:00,44.2,18.0,30.25,NW,315,2.6,7.6,35,0.00,,,0.00,WUHU216HW,2013-03-23 14:12:00,
2013-03-23 10:17:00,44.7,18.5,30.25,SSW,203,0.0,6.7,35,0.00,,,0.00,WUHU216HW,2013-03-23 14:17:00,
2013-03-23 10:22:00,45.3,18.3,30.24,NNW,338,10.5,10.5,34,0.00,,,0.00,WUHU216HW,2013-03-23 14:22:00,
2013-03-23 10:27:00,45.5,17.8,30.24,WNW,293,6.7,10.5,33,0.00,,,0.00,WUHU216HW,2013-03-23 14:27:00,
2013-03-23 10:32:00,45.5,18.5,30.24,North,0,7.6,10.5,34,0.00,,,0.00,WUHU216HW,2013-03-23 14:32:00,
2013-03-23 10:37:00,45.6,18.7,30.24,North,0,2.6,7.6,34,0.00,,,0.00,WUHU216HW,2013-03-23 14:37:00,
2013-03-23 10:42:00,46.2,18.5,30.24,WNW,293,5.5,6.2,33,0.00,,,0.00,WUHU216HW,2013-03-23 14:42:00,
2013-03-23 10:47:00,46.5,18.8,30.24,North,0,2.2,5.5,33,0.00,,,0.00,WUHU216HW,2013-03-23 14:47:00,
2013-03-23 10:52:00,47.1,19.3,30.24,NNE,23,8.7,8.7,33,0.00,,,0.00,WUHU216HW,2013-03-23 14:52:00,
2013-03-23 10:57:00,46.7,17.6,30.24,NW,315,7.3,8.7,31,0.00,,,0.00,WUHU216HW,2013-03-23 14:57:00,
2013-03-23 11:02:00,46.7,18.3,30.24,SSE,158,0.0,8.7,32,0.00,,,0.00,WUHU216HW,2013-03-23 15:02:00,
2013-03-23 11:07:00,47.1,18.6,30.24,NW,315,2.0,7.3,32,0.00,,,0.00,WUHU216HW,2013-03-23 15:07:00,
2013-03-23 11:12:00,47.3,18.8,30.24,WNW,293,4.9,7.3,32,0.00,,,0.00,WUHU216HW,2013-03-23 15:12:00,
2013-03-23 11:17:00,47.8,19.3,30.24,NW,315,7.8,7.8,32,0.00,,,0.00,WUHU216HW,2013-03-23 15:17:00,
2013-03-23 11:22:00,48.2,18.9,30.25,WNW,293,2.6,7.8,31,0.00,,,0.00,WUHU216HW,2013-03-23 15:22:00,
2013-03-23 11:27:00,48.5,19.2,30.24,WNW,293,6.2,8.2,31,0.00,,,0.00,WUHU216HW,2013-03-23 15:27:00,
2013-03-23 11:32:00,48.7,19.4,30.24,WNW,293,5.5,8.2,31,0.00,,,0.00,WUHU216HW,2013-03-23 15:32:00,
2013-03-23 11:37:00,47.8,18.6,30.25,WNW,293,5.3,6.0,31,0.00,,,0.00,WUHU216HW,2013-03-23 15:37:00,
2013-03-23 11:42:00,47.1,18.0,30.25,WNW,293,0.0,7.1,31,0.00,,,0.00,WUHU216HW,2013-03-23 15:42:00,
2013-03-23 11:47:00,46.9,17.8,30.25,NW,315,0.0,7.1,31,0.00,,,0.00,WUHU216HW,2013-03-23 15:47:00,
2013-03-23 11:52:00,46.7,17.6,30.25,West,270,5.5,8.2,31,0.00,,,0.00,WUHU216HW,2013-03-23 15:52:00,
2013-03-23 11:57:00,46.4,16.7,30.25,WNW,293,0.0,8.2,30,0.00,,,0.00,WUHU216HW,2013-03-23 15:57:00,
2013-03-23 12:02:00,46.2,16.5,30.25,NW,315,3.3,7.1,30,0.00,,,0.00,WUHU216HW,2013-03-23 16:02:00,
2013-03-23 12:07:00,45.6,16.0,30.25,NW,315,5.3,7.1,30,0.00,,,0.00,WUHU216HW,2013-03-23 16:07:00,
2013-03-23 12:12:00,45.3,15.7,30.25,West,270,6.0,9.1,30,0.00,,,0.00,WUHU216HW,2013-03-23 16:12:00,
2013-03-23 12:17:00,44.9,15.4,30.25,NW,315,0.0,9.1,30,0.00,,,0.00,WUHU216HW,2013-03-23 16:17:00,
2013-03-23 12:22:00,44.7,15.2,30.25,NW,315,7.1,7.3,30,0.00,,,0.00,WUHU216HW,2013-03-23 16:22:00,
2013-03-23 12:27:00,44.9,15.4,30.25,NW,315,6.9,7.1,30,0.00,,,0.00,WUHU216HW,2013-03-23 16:27:00,
2013-03-23 12:32:00,45.1,15.5,30.25,NW,315,7.1,7.3,30,0.00,,,0.00,WUHU216HW,2013-03-23 16:32:00,
2013-03-23 12:38:00,45.5,15.8,30.25,West,270,2.2,7.6,30,0.00,,,0.00,WUHU216HW,2013-03-23 16:38:00,
2013-03-23 12:43:00,45.3,15.5,30.24,WNW,293,7.1,7.6,29,0.00,,,0.00,WUHU216HW,2013-03-23 16:43:00,
2013-03-23 12:48:00,45.3,15.7,30.24,NW,315,7.1,8.7,30,0.00,,,0.00,WUHU216HW,2013-03-23 16:48:00,
2013-03-23 12:53:00,45.3,14.8,30.24,NW,315,6.0,8.7,29,0.00,,,0.00,WUHU216HW,2013-03-23 16:53:00,
2013-03-23 12:58:00,45.6,15.1,30.24,NW,315,4.9,8.0,29,0.00,,,0.00,WUHU216HW,2013-03-23 16:58:00,
2013-03-23 13:03:00,45.8,15.2,30.24,WNW,293,6.9,8.0,29,0.00,,,0.00,WUHU216HW,2013-03-23 17:03:00,
2013-03-23 13:08:00,45.6,14.2,30.24,WNW,293,8.2,8.2,28,0.00,,,0.00,WUHU216HW,2013-03-23 17:08:00,
2013-03-23 13:13:00,46.2,15.6,30.23,West,270,6.4,8.2,29,0.00,,,0.00,WUHU216HW,2013-03-23 17:13:00,
2013-03-23 13:18:00,46.5,15.9,30.24,NW,315,3.1,6.4,29,0.00,,,0.00,WUHU216HW,2013-03-23 17:18:00,
2013-03-23 13:23:00,46.7,15.1,30.24,NW,315,7.8,7.8,28,0.00,,,0.00,WUHU216HW,2013-03-23 17:23:00,
2013-03-23 13:28:00,46.7,16.0,30.24,WNW,293,5.5,7.8,28,0.00,,,0.00,WUHU216HW,2013-03-23 17:28:00,
2013-03-23 13:33:00,47.1,16.4,30.24,NNW,338,4.6,7.6,29,0.00,,,0.00,WUHU216HW,2013-03-23 17:33:00,
2013-03-23 13:38:00,47.6,16.8,30.23,WNW,293,6.9,9.8,29,0.00,,,0.00,WUHU216HW,2013-03-23 17:38:00,
2013-03-23 13:43:00,47.4,15.8,30.23,West,270,4.0,9.8,28,0.00,,,0.00,WUHU216HW,2013-03-23 17:43:00,
2013-03-23 13:48:00,47.1,15.4,30.23,NNW,338,6.7,6.7,28,0.00,,,0.00,WUHU216HW,2013-03-23 17:48:00,
2013-03-23 13:53:00,46.9,15.3,30.23,NW,315,0.0,7.6,28,0.00,,,0.00,WUHU216HW,2013-03-23 17:53:00,
2013-03-23 13:58:00,47.1,16.4,30.23,WNW,293,6.4,7.6,29,0.00,,,0.00,WUHU216HW,2013-03-23 17:58:00,
2013-03-23 14:03:00,47.1,15.4,30.22,WNW,293,0.0,7.8,28,0.00,,,0.00,WUHU216HW,2013-03-23 18:03:00,
2013-03-23 14:08:00,47.4,16.7,30.22,West,270,0.2,8.5,29,0.00,,,0.00,WUHU216HW,2013-03-23 18:08:00,
2013-03-23 14:13:00,47.4,16.7,30.22,NNW,338,6.4,8.5,29,0.00,,,0.00,WUHU216HW,2013-03-23 18:13:00,
2013-03-23 14:18:00,47.4,16.7,30.22,NNW,338,5.8,6.4,29,0.00,,,0.00,WUHU216HW,2013-03-23 18:18:00,
2013-03-23 14:23:00,47.4,16.7,30.22,NW,315,1.1,6.4,29,0.00,,,0.00,WUHU216HW,2013-03-23 18:23:00,
2013-03-23 14:28:00,48.2,17.6,30.22,NW,315,9.3,9.3,29,0.00,,,0.00,WUHU216HW,2013-03-23 18:28:00,
2013-03-23 14:33:00,49.1,18.1,30.22,NW,315,0.0,9.3,29,0.00,,,0.00,WUHU216HW,2013-03-23 18:33:00,
2013-03-23 14:38:00,49.2,17.3,30.22,NW,315,4.9,9.3,28,0.00,,,0.00,WUHU216HW,2013-03-23 18:38:00,
2013-03-23 14:43:00,49.1,17.0,30.21,NNW,338,6.4,6.9,28,0.00,,,0.00,WUHU216HW,2013-03-23 18:43:00,
2013-03-23 14:48:00,48.7,16.8,30.22,WNW,293,6.2,7.1,28,0.00,,,0.00,WUHU216HW,2013-03-23 18:48:00,
2013-03-23 14:53:00,48.3,15.6,30.22,NW,315,5.3,8.9,27,0.00,,,0.00,WUHU216HW,2013-03-23 18:53:00,
2013-03-23 14:58:00,48.3,15.3,30.21,NNW,338,6.7,8.9,27,0.00,,,0.00,WUHU216HW,2013-03-23 18:58:00,
2013-03-23 15:03:00,47.8,15.1,30.21,WNW,293,5.8,8.9,27,0.00,,,0.00,WUHU216HW,2013-03-23 19:03:00,
2013-03-23 15:08:00,47.4,13.9,30.21,NW,315,3.3,8.9,26,0.00,,,0.00,WUHU216HW,2013-03-23 19:08:00,
2013-03-23 15:13:00,47.4,15.8,30.20,WNW,293,6.9,6.9,28,0.00,,,0.00,WUHU216HW,2013-03-23 19:13:00,
2013-03-23 15:18:00,47.6,15.9,30.20,NW,315,6.7,6.9,28,0.00,,,0.00,WUHU216HW,2013-03-23 19:18:00,
2013-03-23 15:23:00,47.8,16.1,30.20,WNW,293,6.7,6.9,28,0.00,,,0.00,WUHU216HW,2013-03-23 19:23:00,
2013-03-23 15:28:00,47.3,13.8,30.20,WSW,248,0.0,8.7,26,0.00,,,0.00,WUHU216HW,2013-03-23 19:28:00,
2013-03-23 15:33:00,47.1,15.4,30.21,WSW,248,0.0,8.7,28,0.00,,,0.00,WUHU216HW,2013-03-23 19:33:00,
2013-03-23 15:38:00,47.3,15.6,30.20,NW,315,0.0,5.8,28,0.00,,,0.00,WUHU216HW,2013-03-23 19:38:00,
2013-03-23 15:43:00,47.8,15.1,30.21,NW,315,1.5,7.3,27,0.00,,,0.00,WUHU216HW,2013-03-23 19:43:00,
2013-03-23 15:48:00,47.8,16.1,30.21,NW,315,5.5,7.3,28,0.00,,,0.00,WUHU216HW,2013-03-23 19:48:00,
2013-03-23 15:53:00,47.3,13.8,30.21,WNW,293,0.0,6.9,26,0.00,,,0.00,WUHU216HW,2013-03-23 19:53:00,
2013-03-23 15:58:00,46.5,13.1,30.21,NW,315,0.0,6.9,26,0.00,,,0.00,WUHU216HW,2013-03-23 19:58:00,
2013-03-23 16:03:00,46.5,13.1,30.21,NW,315,7.3,7.3,26,0.00,,,0.00,WUHU216HW,2013-03-23 20:03:00,
2013-03-23 16:08:00,46.7,15.1,30.20,NW,315,7.1,7.3,28,0.00,,,0.00,WUHU216HW,2013-03-23 20:08:00,
2013-03-23 16:13:00,46.7,13.3,30.20,NW,315,3.8,8.0,26,0.00,,,0.00,WUHU216HW,2013-03-23 20:13:00,
2013-03-23 16:18:00,46.2,14.7,30.21,WNW,293,5.8,8.0,28,0.00,,,0.00,WUHU216HW,2013-03-23 20:18:00,
2013-03-23 16:23:00,46.0,14.5,30.21,WNW,293,0.0,7.8,28,0.00,,,0.00,WUHU216HW,2013-03-23 20:23:00,
2013-03-23 16:28:00,46.0,13.6,30.21,NNW,338,7.6,7.8,27,0.00,,,0.00,WUHU216HW,2013-03-23 20:28:00,
2013-03-23 16:33:00,46.0,14.5,30.21,West,270,0.0,7.6,28,0.00,,,0.00,WUHU216HW,2013-03-23 20:33:00,
2013-03-23 16:38:00,46.2,14.7,30.21,NW,315,6.4,7.6,28,0.00,,,0.00,WUHU216HW,2013-03-23 20:38:00,
2013-03-23 16:43:00,46.5,15.0,30.21,NW,315,0.0,6.7,28,0.00,,,0.00,WUHU216HW,2013-03-23 20:43:00,
2013-03-23 16:48:00,46.5,14.0,30.21,West,270,0.4,6.7,27,0.00,,,0.00,WUHU216HW,2013-03-23 20:48:00,
2013-03-23 16:53:00,46.7,15.1,30.21,WNW,293,2.2,4.4,28,0.00,,,0.00,WUHU216HW,2013-03-23 20:53:00,
2013-03-23 16:58:00,46.5,15.0,30.21,NW,315,4.2,6.9,28,0.00,,,0.00,WUHU216HW,2013-03-23 20:58:00,
2013-03-23 17:03:00,46.4,14.8,30.21,WNW,293,5.3,6.9,28,0.00,,,0.00,WUHU216HW,2013-03-23 21:03:00,
2013-03-23 17:08:00,46.2,14.7,30.22,NW,315,2.6,6.2,28,0.00,,,0.00,WUHU216HW,2013-03-23 21:08:00,
2013-03-23 17:13:00,46.2,13.7,30.21,NW,315,6.9,6.9,27,0.00,,,0.00,WUHU216HW,2013-03-23 21:13:00,
2013-03-23 17:18:00,46.0,12.7,30.21,West,270,2.9,6.9,26,0.00,,,0.00,WUHU216HW,2013-03-23 21:18:00,
2013-03-23 17:23:00,46.2,14.7,30.21,NW,315,6.2,6.9,28,0.00,,,0.00,WUHU216HW,2013-03-23 21:23:00,
2013-03-23 17:28:00,45.6,14.2,30.22,NW,315,7.3,8.5,28,0.00,,,0.00,WUHU216HW,2013-03-23 21:28:00,
2013-03-23 17:33:00,45.6,14.2,30.22,West,270,0.0,8.5,28,0.00,,,0.00,WUHU216HW,2013-03-23 21:33:00,
2013-03-23 17:38:00,46.0,14.5,30.22,NW,315,0.0,7.3,28,0.00,,,0.00,WUHU216HW,2013-03-23 21:38:00,
2013-03-23 17:43:00,46.2,13.7,30.22,NNW,338,2.4,5.8,27,0.00,,,0.00,WUHU216HW,2013-03-23 21:43:00,
2013-03-23 17:48:00,46.2,13.7,30.23,NW,315,4.2,5.8,27,0.00,,,0.00,WUHU216HW,2013-03-23 21:48:00,
2013-03-23 17:53:00,46.2,14.7,30.23,NW,315,7.1,7.1,28,0.00,,,0.00,WUHU216HW,2013-03-23 21:53:00,
2013-03-23 17:58:00,46.0,12.7,30.23,WNW,293,3.5,7.1,26,0.00,,,0.00,WUHU216HW,2013-03-23 21:58:00,
2013-03-23 18:03:00,45.6,12.3,30.23,NW,315,7.6,7.6,26,0.00,,,0.00,WUHU216HW,2013-03-23 22:03:00,
2013-03-23 18:08:00,45.5,12.2,30.23,NNW,338,3.5,7.6,26,0.00,,,0.00,WUHU216HW,2013-03-23 22:08:00,
2013-03-23 18:13:00,45.3,12.0,30.23,WNW,293,0.0,7.3,26,0.00,,,0.00,WUHU216HW,2013-03-23 22:13:00,
2013-03-23 18:18:00,45.3,12.0,30.23,West,270,0.0,7.3,26,0.00,,,0.00,WUHU216HW,2013-03-23 22:18:00,
2013-03-23 18:23:00,45.1,11.9,30.23,NW,315,6.7,7.3,26,0.00,,,0.00,WUHU216HW,2013-03-23 22:23:00,
2013-03-23 18:28:00,44.9,12.6,30.23,WNW,293,0.0,7.3,27,0.00,,,0.00,WUHU216HW,2013-03-23 22:28:00,
2013-03-23 18:33:00,44.9,12.6,30.23,NNW,338,6.7,6.7,27,0.00,,,0.00,WUHU216HW,2013-03-23 22:33:00,
2013-03-23 18:38:00,44.7,12.5,30.24,NW,315,2.6,6.9,27,0.00,,,0.00,WUHU216HW,2013-03-23 22:38:00,
2013-03-23 18:43:00,44.7,12.5,30.24,WNW,293,7.3,7.3,27,0.00,,,0.00,WUHU216HW,2013-03-23 22:43:00,
2013-03-23 18:48:00,44.4,12.2,30.24,WNW,293,5.3,14.3,27,0.00,,,0.00,WUHU216HW,2013-03-23 22:48:00,
2013-03-23 18:54:00,44.2,12.0,30.24,NW,315,2.9,14.3,27,0.00,,,0.00,WUHU216HW,2013-03-23 22:54:00,
2013-03-23 18:59:00,43.8,10.8,30.24,NW,315,7.1,7.1,26,0.00,,,0.00,WUHU216HW,2013-03-23 22:59:00,
2013-03-23 19:04:00,43.5,11.4,30.24,NW,315,5.8,7.1,27,0.00,,,0.00,WUHU216HW,2013-03-23 23:04:00,
2013-03-23 19:09:00,43.5,10.5,30.24,West,270,3.8,6.4,26,0.00,,,0.00,WUHU216HW,2013-03-23 23:09:00,
2013-03-23 19:14:00,43.3,11.2,30.24,WNW,293,7.3,9.3,27,0.00,,,0.00,WUHU216HW,2013-03-23 23:14:00,